Wind_Speed
18 17 16 14 12 11 10 8 7 6 5 4 3 2 2 2 3 4 5 6 6 6 6 7 7 8 8 8 8 8 8 8 8 8 8 7 8 8 8 8 7 7 6 6 6 5 5 5 4
20 19 18 16 15 13 12 10 9 7 6 6 5 4 3 3 3 4 4 5 5 5 5 6 6 7 7 7 7 7 7 7 7 7 7 7 7 7 7 7 7 6 6 6 5 5 4 4 4
22 21 20 18 17 16 14 12 10 9 8 7 6 5 4 3 3 3 4 4 5 5 5 6 6 6 6 6 6 6 7 7 7 7 7 6 6 6 7 7 6 6 5 5 5 4 4 4 3
24 23 22 20 19 17 16 14 12 11 10 9 8 7 6 5 4 3 4 4 4 4 5 6 6 6 5 5 6 6 6 6 6 6 6 6 6 6 6 6 6 6 5 5 4 4 4 4 4
27 25 24 23 21 19 18 16 14 12 11 10 9 8 7 6 5 5 4 4 4 4 4 5 5 5 5 6 6 6 6 6 6 6 6 6 6 6 6 6 6 6 6 6 5 5 5 5 5
30 28 27 25 23 21 20 18 16 15 13 12 11 10 9 8 7 6 6 5 5 5 5 5 5 5 5 6 6 6 6 6 6 6 7 7 6 6 6 6 6 7 7 7 7 6 6 7 7
32 31 29 27 26 24 22 20 19 17 16 14 13 12 11 10 9 8 7 7 6 5 5 5 5 6 5 5 6 6 6 6 6 6 7 7 7 7 7 6 7 7 7 8 8 8 8 8 9
35 33 31 29 28 26 24 23 21 20 18 17 15 14 13 12 10 9 9 8 8 7 6 6 6 6 6 6 6 6 7 7 7 7 7 7 7 7 7 7 7 8 8 9 9 9 10 10 10
38 36 34 31 30 29 27 26 24 23 21 20 18 17 16 14 13 11 11 10 9 9 8 7 7 7 7 7 7 7 7 8 8 8 8 8 8 8 9 9 9 9 9 10 10 11 11 12 12
41 39 36 34 33 31 30 29 27 25 24 22 21 20 18 17 15 14 13 12 11 11 10 9 9 8 8 8 8 8 8 8 8 8 8 8 8 9 9 10 10 10 10 11 12 12 13 13 13
44 42 39 37 36 35 33 31 29 27 26 24 23 22 21 19 18 17 16 15 14 13 12 12 11 11 10 10 9 9 9 9 9 9 10 9 9 10 10 11 11 11 12 12 13 13 14 14 15
47 44 42 41 39 38 36 34 32 30 28 27 26 25 24 22 21 19 18 18 17 16 15 14 13 13 12 12 11 11 11 11 11 11 11 11 11 11 12 12 13 13 13 14 14 15 15 16 17
50 47 45 44 43 41 39 37 35 32 31 30 29 27 26 25 24 22 21 20 19 18 18 16 15 15 15 14 14 13 13 13 13 14 14 14 14 14 14 14 14 15 15 16 17 17 18 18 19
52 50 49 48 46 44 42 40 38 35 34 33 31 30 28 27 26 25 24 23 22 21 20 19 18 18 17 17 16 16 15 15 15 15 16 16 16 17 17 17 17 17 17 18 18 19 20 20 21
55 53 52 51 49 47 46 44 40 37 37 35 34 33 31 30 29 27 26 25 24 23 22 22 21 20 20 20 19 19 18 18 18 18 18 18 18 19 19 19 19 20 20 20 21 21 22 22 23
58 57 55 53 52 50 50 47 42 41 41 39 37 35 34 33 31 30 29 28 28 26 25 25 24 23 23 23 22 22 22 21 21 21 21 21 21 21 22 22 23 23 23 24 24 24 24 25 26
61 60 58 55 54 53 53 50 46 45 44 43 41 39 37 36 34 33 33 32 31 30 29 28 27 27 27 26 26 25 25 24 25 25 25 25 25 25 25 25 26 26 27 27 27 27 28 28 29
62 60 59 57 56 56 56 54 50 48 48 46 44 42 41 39 37 37 37 36 35 34 32 32 31 31 31 30 29 29 28 28 28 28 28 28 28 28 28 29 29 29 29 30 30 31 31 31 32
63 62 61 59 59 59 58 57 54 53 52 50 48 46 44 42 41 41 40 39 38 37 36 36 35 35 35 34 33 33 32 32 32 32 32 31 31 32 32 32 32 33 33 33 34 34 35 35 35
63 63 63 62 61 62 61 60 58 56 55 53 51 49 47 46 45 44 43 42 41 40 39 39 39 39 38 38 37 37 37 36 35 35 35 35 35 36 36 36 36 36 36 37 37 38 38 38 39
66 65 63 63 62 64 64 65 61 59 58 56 54 52 50 49 47 47 46 45 44 43 42 42 41 41 41 41 40 40 39 39 38 38 38 39 39 40 39 39 40 40 40 40 41 41 41 42 42
65 65 64 64 64 65 65 68 64 62 60 58 56 54 53 52 50 49 49 48 47 45 45 44 44 43 43 43 43 42 41 41 41 42 42 43 43 43 43 43 43 43 44 44 44 45 45 45 45
65 64 64 65 66 68 67 70 68 65 62 59 57 56 55 54 53 52 51 51 50 49 48 47 47 47 46 46 46 45 45 44 44 45 45 45 46 46 46 46 46 47 47 47 48 48 48 48 49
64 64 64 65 66 70 69 70 73 67 63 59 58 58 57 56 56 55 54 54 54 53 52 51 51 50 50 50 50 49 48 47 48 48 48 48 49 49 49 49 50 50 50 50 50 51 51 51 51
64 64 63 65 67 71 69 71 73 67 63 60 59 59 59 59 59 59 58 56 56 56 55 55 54 54 53 53 53 52 51 51 51 51 51 51 51 52 52 52 52 52 53 53 53 53 53 54 54
61 62 63 63 66 68 69 71 70 68 64 62 61 60 59 59 59 59 59 59 58 58 57 57 57 56 56 56 55 55 55 55 54 54 54 54 54 54 54 54 54 55 55 55 56 56 56 57 57
58 60 60 61 64 66 69 71 70 68 65 62 61 60 60 59 59 60 60 60 60 60 59 59 59 59 59 59 58 58 57 57 57 57 57 56 56 56 56 57 57 58 58 58 59 59 59 60 60
55 56 57 60 62 65 70 71 70 68 65 63 62 61 61 60 60 60 60 61 61 61 61 61 62 62 62 61 60 60 60 60 59 59 59 59 58 58 59 60 60 61 61 62 62 62 62 62 62
54 55 57 59 61 64 67 71 69 67 66 64 62 61 60 59 59 59 60 60 61 61 61 62 62 62 63 62 62 62 62 62 62 62 62 61 61 61 61 62 63 64 64 64 65 64 64 64 64
53 54 54 57 59 62 66 70 67 67 65 64 63 61 60 60 60 59 59 59 60 61 62 63 63 63 63 64 64 64 64 64 64 64 64 64 64 65 65 65 65 66 66 66 66 66 66 66 66
Wind_Direction
220 220 221 221 222 222 221 214 213 211 202 195 189 177 145 129 119 114 115 115 116 118 118 120 124 129 131 129 129 129 131 135 140 142 140 139 139 140 142 144 144 142 141 142 141 144 147 146 142
223 222 222 223 224 222 220 216 214 214 208 201 197 193 174 154 146 135 129 124 125 127 131 130 132 137 142 140 139 138 138 141 145 148 147 144 144 147 152 155 154 152 151 152 153 155 160 159 161
225 225 225 224 224 223 221 218 216 215 213 207 203 201 193 184 170 162 152 144 136 136 143 145 145 146 149 152 152 150 150 151 153 155 157 156 156 158 161 166 167 166 165 167 170 172 177 182 191
226 227 227 225 224 222 221 219 217 216 215 213 211 208 204 200 192 183 175 168 158 152 154 156 159 161 164 166 166 165 165 163 162 165 167 168 167 169 172 176 179 181 185 188 192 198 204 211 221
227 227 227 226 224 223 221 221 220 218 217 217 217 215 213 210 210 206 200 191 183 175 172 170 169 175 179 181 180 180 181 179 176 177 179 181 181 182 186 190 195 199 203 207 213 221 226 231 239
228 228 227 226 225 224 224 223 224 223 222 222 221 219 219 220 221 221 218 212 204 194 190 190 187 186 192 196 195 194 193 192 192 191 192 192 193 195 199 205 210 214 218 222 227 235 240 244 248
229 228 228 227 226 226 226 226 226 225 225 226 226 226 225 224 226 227 226 224 221 215 207 205 203 200 200 202 203 204 203 201 202 202 201 202 204 207 210 214 220 224 229 232 238 244 249 252 254
229 230 229 228 228 228 228 228 228 227 226 227 229 229 227 227 228 228 229 228 227 225 222 218 217 215 214 213 212 214 214 213 213 213 214 215 217 219 222 225 229 233 236 240 244 247 251 255 258
229 230 229 229 230 230 230 230 229 229 229 229 230 231 230 230 230 230 230 230 231 229 228 226 225 224 225 225 223 224 225 225 224 224 225 225 226 228 230 234 239 242 244 247 250 252 255 259 262
229 230 229 230 231 232 232 231 230 230 230 230 231 232 233 232 233 233 231 231 232 233 232 230 232 230 230 231 230 231 231 230 231 232 233 234 236 237 238 241 246 250 252 253 255 258 261 263 265
230 230 230 230 231 232 232 232 231 230 230 230 231 232 234 235 235 235 234 233 233 234 235 235 236 236 236 236 236 236 237 236 236 238 240 243 244 246 248 248 251 254 257 259 260 263 265 268 269
231 230 230 231 232 232 233 233 232 231 231 230 231 233 235 237 237 237 237 236 236 236 236 237 239 240 240 241 241 242 243 243 244 246 247 249 250 252 253 255 256 259 261 262 265 266 269 271 272
231 231 231 231 232 232 233 233 233 231 232 231 232 234 236 238 238 239 238 239 239 239 239 238 239 241 243 245 246 247 246 246 247 250 251 253 254 256 257 258 260 263 265 267 268 268 269 271 273
232 232 232 232 232 233 233 233 233 232 234 233 233 234 236 238 239 240 240 240 240 241 241 242 242 243 244 246 249 251 253 253 253 253 254 256 257 258 260 261 262 264 267 269 271 272 272 272 273
234 233 233 232 233 234 234 233 233 234 235 235 235 235 236 237 239 240 241 242 242 242 243 244 245 246 246 248 250 252 254 257 258 258 258 258 260 261 263 264 265 267 269 270 271 272 273 274 274
235 234 234 233 234 235 235 234 234 235 236 236 237 237 237 238 239 241 242 243 243 243 244 246 247 249 250 251 252 253 255 257 259 260 262 262 262 263 265 266 267 269 270 271 273 273 274 275 275
235 235 235 235 235 236 237 236 234 236 237 238 238 238 238 239 239 241 242 243 244 246 247 248 248 250 253 254 255 256 257 258 260 261 262 263 264 264 265 267 268 270 271 272 273 273 274 275 276
236 236 237 237 237 238 239 238 236 237 238 239 239 240 240 240 241 242 243 244 245 247 249 251 251 252 254 256 257 257 258 259 260 261 262 263 264 265 266 267 269 270 272 272 273 274 275 276 276
238 239 239 239 240 240 240 240 239 238 239 239 240 241 241 242 242 243 244 246 247 248 250 252 253 254 255 256 257 258 259 259 260 262 264 265 266 267 267 268 269 270 272 273 273 274 275 275 276
239 240 240 241 241 242 242 241 240 239 239 240 241 242 242 243 244 245 246 248 249 250 251 252 254 255 256 256 257 258 260 261 262 263 265 265 266 267 268 269 270 271 272 273 274 274 275 276 276
240 241 241 243 244 244 244 242 240 239 240 241 242 243 244 245 245 246 248 249 250 251 253 254 255 256 257 257 258 259 260 261 262 263 263 264 265 267 268 269 270 271 272 273 274 274 275 275 276
240 241 243 244 245 245 245 246 240 240 240 241 243 244 245 246 246 247 249 250 251 252 252 253 255 256 257 258 259 260 261 262 262 262 263 264 265 267 268 269 270 271 273 273 274 274 275 275 276
241 241 243 245 246 247 245 247 242 240 240 242 243 245 246 247 247 248 249 251 251 252 253 254 255 256 258 259 260 261 262 262 262 263 264 265 266 267 269 270 271 272 272 273 274 274 275 276 276
240 241 243 245 246 246 245 248 246 242 241 242 243 244 246 248 249 249 250 251 252 252 253 254 256 257 258 260 261 262 262 263 263 264 265 265 267 268 269 270 271 272 272 273 273 274 275 276 277
237 239 241 243 244 247 246 247 247 245 243 243 243 244 246 247 249 250 251 252 252 253 253 254 255 257 258 260 261 262 263 263 264 264 265 266 267 268 269 270 271 271 272 272 273 274 275 276 276
238 239 241 244 246 249 248 248 247 247 246 245 245 246 247 247 248 250 251 252 253 253 254 255 256 257 258 259 260 261 262 263 264 265 265 266 266 267 268 270 271 271 272 272 273 273 274 275 276
238 239 241 244 247 249 249 249 248 249 249 249 248 248 249 249 249 250 251 252 253 253 254 255 256 257 258 259 260 261 262 263 264 264 265 266 266 268 269 270 270 271 272 272 273 273 274 275 276
238 239 239 240 243 246 249 249 249 249 251 252 252 251 251 251 251 251 251 252 253 254 255 255 256 257 258 259 260 260 261 262 263 264 264 265 266 267 268 269 270 271 272 273 273 274 274 275 276
236 237 239 241 243 246 250 250 249 251 252 253 254 254 254 254 254 253 253 253 253 254 254 255 256 256 257 258 259 259 261 262 263 263 264 265 266 267 268 269 270 271 272 273 273 273 274 275 276
238 238 239 242 244 246 249 250 250 252 253 254 255 255 255 255 255 255 255 255 255 254 254 255 255 256 257 257 258 259 261 262 262 263 264 265 266 267 268 269 270 270 271 272 273 274 274 274 275
Height
5866 5868 5870 5872 5874 5875 5875 5876 5876 5876 5876 5876 5877 5876 5876 5876 5877 5878 5876 5874 5873 5873 5873 5872 5873 5873 5873 5873 5873 5873 5873 5873 5873 5874 5874 5874 5874 5874 5875 5875 5875 5876 5876 5876 5877 5877 5877 5877 5877
5863 5866 5868 5870 5871 5872 5874 5874 5874 5875 5875 5875 5876 5876 5876 5875 5875 5875 5874 5874 5874 5873 5873 5873 5873 5873 5873 5874 5874 5874 5874 5874 5874 5874 5874 5874 5874 5875 5875 5875 5876 5876 5876 5876 5877 5877 5877 5877 5877
5861 5863 5866 5867 5869 5870 5872 5872 5873 5873 5873 5874 5874 5875 5875 5875 5875 5875 5874 5874 5874 5873 5873 5873 5873 5873 5874 5874 5874 5874 5874 5874 5874 5874 5874 5874 5875 5875 5875 5875 5876 5876 5876 5877 5877 5877 5877 5877 5877
5857 5860 5863 5865 5866 5867 5869 5870 5870 5871 5872 5872 5873 5874 5874 5874 5874 5874 5874 5873 5873 5873 5873 5873 5873 5873 5874 5874 5874 5874 5874 5874 5874 5874 5874 5874 5875 5875 5875 5875 5876 5876 5876 5876 5877 5877 5877 5877 5877
5853 5856 5859 5860 5862 5864 5866 5867 5868 5869 5870 5871 5871 5872 5872 5873 5873 5873 5873 5873 5873 5873 5873 5873 5873 5873 5873 5873 5874 5874 5874 5874 5874 5874 5874 5874 5875 5875 5875 5875 5875 5876 5876 5876 5876 5876 5876 5876 5876
5849 5852 5855 5856 5859 5861 5862 5864 5865 5866 5868 5868 5869 5870 5871 5871 5871 5872 5872 5872 5872 5872 5872 5872 5872 5872 5873 5873 5873 5873 5873 5873 5873 5874 5874 5874 5874 5874 5875 5875 5875 5875 5875 5875 5875 5875 5875 5875 5875
5844 5847 5849 5852 5855 5857 5859 5861 5862 5864 5865 5866 5867 5868 5869 5869 5870 5870 5870 5871 5871 5871 5871 5871 5871 5871 5872 5872 5872 5872 5872 5873 5873 5873 5873 5873 5873 5874 5874 5874 5874 5874 5874 5874 5874 5874 5874 5874 5874
5838 5842 5844 5848 5850 5853 5855 5857 5859 5860 5862 5863 5864 5865 5866 5867 5868 5868 5869 5869 5869 5870 5870 5870 5870 5870 5870 5871 5871 5871 5871 5871 5872 5872 5872 5872 5872 5872 5873 5873 5873 5873 5873 5873 5873 5873 5873 5872 5872
5831 5836 5839 5843 5845 5848 5850 5852 5855 5856 5858 5860 5861 5862 5864 5864 5865 5866 5867 5867 5868 5868 5868 5868 5869 5869 5869 5869 5870 5870 5870 5870 5870 5871 5871 5871 5871 5871 5871 5871 5871 5871 5871 5871 5871 5871 5871 5870 5870
5824 5829 5834 5837 5840 5842 5845 5847 5850 5852 5854 5856 5857 5859 5860 5861 5862 5863 5864 5865 5866 5866 5866 5867 5867 5867 5867 5868 5868 5868 5868 5869 5869 5869 5869 5870 5870 5870 5870 5870 5870 5870 5870 5869 5869 5869 5869 5868 5868
5817 5822 5827 5830 5833 5836 5839 5842 5845 5847 5850 5852 5853 5855 5856 5858 5859 5860 5861 5862 5863 5863 5864 5864 5865 5865 5866 5866 5866 5866 5867 5867 5867 5867 5868 5868 5868 5868 5868 5868 5868 5867 5867 5867 5867 5867 5866 5866 5865
5809 5815 5819 5823 5826 5829 5832 5836 5839 5842 5845 5847 5849 5850 5852 5854 5855 5856 5858 5859 5860 5860 5861 5862 5862 5863 5863 5864 5864 5864 5864 5865 5865 5865 5865 5866 5866 5866 5866 5866 5865 5865 5865 5865 5864 5864 5863 5863 5862
5800 5806 5811 5815 5818 5822 5826 5829 5832 5836 5839 5841 5843 5845 5847 5849 5851 5852 5854 5855 5856 5857 5858 5858 5859 5860 5860 5861 5861 5862 5862 5862 5862 5863 5863 5863 5863 5863 5863 5863 5863 5862 5862 5862 5861 5861 5860 5860 5859
5792 5797 5802 5806 5810 5814 5818 5821 5825 5831 5832 5835 5838 5840 5842 5844 5845 5847 5849 5850 5852 5853 5854 5855 5856 5856 5857 5858 5858 5858 5859 5859 5859 5859 5860 5860 5860 5860 5860 5860 5859 5859 5859 5858 5858 5857 5857 5856 5855
5782 5787 5792 5797 5801 5806 5809 5814 5820 5824 5825 5829 5831 5834 5836 5838 5840 5842 5844 5845 5847 5848 5849 5850 5851 5852 5853 5853 5854 5854 5855 5855 5856 5856 5856 5856 5856 5856 5856 5856 5856 5855 5855 5854 5854 5853 5852 5852 5851
5771 5776 5782 5788 5792 5796 5801 5807 5813 5815 5818 5821 5824 5827 5830 5832 5834 5836 5838 5839 5841 5843 5844 5846 5847 5847 5848 5849 5849 5850 5851 5851 5851 5852 5852 5852 5851 5851 5851 5851 5851 5851 5850 5849 5849 5848 5847 5846 5846
5759 5766 5772 5779 5783 5786 5790 5797 5804 5806 5809 5813 5817 5820 5823 5826 5828 5830 5831 5833 5835 5837 5838 5840 5841 5842 5843 5844 5844 5845 5846 5846 5846 5847 5847 5846 5846 5846 5846 5846 5846 5845 5845 5844 5843 5843 5842 5841 5840
5751 5757 5763 5768 5773 5776 5780 5786 5794 5797 5800 5805 5808 5812 5815 5818 5821 5822 5824 5826 5828 5830 5832 5833 5835 5836 5837 5838 5839 5839 5840 5840 5840 5841 5841 5841 5841 5840 5840 5840 5840 5839 5839 5838 5837 5836 5835 5834 5833
5740 5745 5751 5757 5761 5765 5769 5774 5782 5786 5790 5795 5799 5803 5806 5810 5813 5814 5816 5818 5820 5822 5824 5826 5827 5828 5829 5831 5831 5832 5833 5833 5834 5834 5834 5834 5834 5834 5834 5833 5833 5832 5832 5831 5830 5829 5828 5827 5826
5726 5733 5739 5744 5748 5752 5757 5762 5769 5775 5780 5785 5789 5793 5797 5801 5803 5805 5807 5810 5812 5814 5816 5817 5819 5820 5821 5823 5823 5824 5825 5826 5827 5827 5827 5827 5826 5826 5826 5826 5825 5824 5824 5823 5822 5821 5820 5819 5818
5714 5721 5728 5732 5736 5739 5743 5748 5757 5764 5769 5774 5779 5783 5787 5790 5794 5796 5798 5800 5802 5804 5807 5808 5810 5811 5812 5813 5814 5816 5816 5817 5818 5818 5818 5818 5817 5817 5817 5817 5817 5816 5815 5815 5814 5812 5811 5810 5809
5702 5711 5715 5718 5721 5725 5730 5732 5745 5752 5757 5763 5769 5773 5776 5780 5783 5785 5788 5790 5792 5794 5796 5798 5799 5801 5802 5803 5805 5806 5807 5808 5809 5808 5808 5808 5808 5808 5807 5807 5807 5806 5806 5805 5804 5803 5801 5800 5799
5692 5697 5701 5704 5707 5710 5716 5718 5729 5738 5746 5754 5759 5762 5765 5768 5771 5774 5776 5779 5781 5783 5785 5787 5789 5790 5792 5793 5794 5795 5797 5798 5798 5798 5798 5798 5797 5797 5797 5797 5796 5796 5795 5794 5793 5792 5791 5790 5789
5678 5683 5686 5688 5690 5693 5704 5705 5711 5725 5736 5743 5747 5750 5753 5756 5759 5762 5764 5767 5769 5771 5774 5776 5778 5779 5781 5782 5783 5784 5785 5786 5786 5787 5787 5787 5786 5786 5786 5785 5785 5784 5783 5783 5781 5780 5779 5778 5777
5664 5669 5672 5673 5673 5680 5691 5690 5700 5714 5723 5729 5734 5738 5740 5743 5746 5748 5751 5754 5757 5759 5761 5763 5765 5767 5769 5770 5771 5772 5773 5774 5774 5775 5775 5775 5775 5775 5774 5773 5773 5772 5771 5770 5769 5768 5767 5766 5764
5653 5656 5660 5663 5665 5671 5674 5677 5692 5700 5707 5714 5720 5723 5726 5729 5732 5735 5738 5741 5743 5746 5748 5750 5752 5754 5755 5756 5758 5759 5760 5761 5762 5762 5762 5762 5762 5762 5761 5760 5760 5759 5758 5757 5756 5755 5754 5752 5751
5638 5642 5649 5650 5651 5654 5657 5666 5678 5685 5692 5699 5705 5708 5712 5715 5718 5721 5724 5726 5729 5732 5734 5736 5738 5740 5742 5743 5744 5745 5746 5747 5748 5748 5748 5749 5749 5749 5748 5747 5746 5746 5744 5743 5742 5741 5740 5738 5737
5626 5632 5634 5634 5636 5639 5644 5652 5665 5674 5679 5684 5689 5693 5696 5700 5703 5706 5709 5712 5714 5717 5719 5721 5723 5725 5727 5728 5730 5731 5732 5733 5734 5734 5734 5735 5735 5735 5734 5733 5733 5731 5730 5729 5728 5727 5725 5724 5722
5614 5617 5619 5622 5625 5628 5631 5642 5654 5660 5665 5669 5673 5676 5680 5683 5687 5690 5693 5697 5699 5702 5704 5706 5708 5710 5712 5713 5714 5716 5717 5718 5718 5719 5720 5720 5720 5719 5719 5718 5717 5716 5715 5714 5712 5711 5710 5708 5707
5600 5604 5608 5610 5613 5616 5618 5628 5641 5646 5649 5653 5656 5660 5663 5667 5670 5674 5677 5680 5683 5686 5688 5691 5692 5694 5696 5697 5699 5700 5701 5702 5703 5703 5704 5704 5704 5704 5703 5703 5702 5701 5699 5698 5697 5695 5694 5692 5691